星链-5692 (STARLINK-5692 )

导读 | 豆包AI

STARLINK-5692是美国SpaceX星链(Starlink)星座的组网卫星,于2023年2月2日发射入轨。星链项目旨在构建全球覆盖的空间互联网通信系统,该卫星运行于近地轨道,通过Ku/Ka频段以及激光星间链路技术,为全球用户提供高速低延迟的宽带接入服务,助力实现偏远地区网络覆盖、移动网络通信等应用,是星链大规模低轨星座部署的组成单元。

基本信息
目录编号:
55483
目录名称:
STARLINK-5692
国际标识:
2023-015AL
轨道中心:
EARTH
卫星名称:
星链-5692
卫星全名:
星链-5692 (STARLINK-5692 )
卫星状态:
在轨 (已飞行1137 天)
发射日期:
2023-02-02 UTC
国别 :
美国 (US)
星等 :
--
轨道信息
数据来源 国际轨道数据
星历时间: 2026-03-15T14:00:01+0800
10小时前
查看轨道信息
半长轴: 6882.967km
偏心率: 0.000152
轨道倾角: 43.002°
近地点辐角 264.630°
升交点赤经 307.630°
平近点角 102.232°
近地点: 503.783km
远地点: 505.877km
周期: 94.716分钟
每日圈数: 15.203349
详细信息
固有亮度:
5
最大亮度:
2.5
卫星平台:
Starlink v1.5
覆盖范围:
全球
运营商:
太空探索技术公司
运营商所在国:
美国
制造商(研发单位):
太空探索技术公司
制造商所在国:
美国
使用方式:
暂无
卫星简介
星链(Starlink)计划是由太空探索技术公司(SpaceX)提出的一个巨型低轨卫星互联网星座项目,计划在2019年至2024年间在太空搭建由约1.2万颗卫星组成的“星链”网络,其中1584颗将部署在地球上空550千米处的近地轨道,并从2020年开始工作。该卫星仍在工作。
2D轨道图
3D轨道图
轨道高度分析图
轨道倾角分析图
轨道综合分析图
查看轨道综合分析图